Home   Weather   Sisimiut   Past weeks

Flag for Greenland Past Weather in Sisimiut, Greenland — Yesterday and Last 2 Weeks

Now
24 °F

Cold.


Feels Like: 8 °F
Forecast: 15 / 20 °F
Wind: 23 mph from North

Location: Attu Kitsissut

Current Time: Dec 10, 2016 at 12:14:54 am

Latest Report: Dec 9, 2016 at 10:00 pm


Visibility: N/A

Pressure: 29.55 "Hg

Humidity: 90%

Dew Point: 21 °F

Location of SisimiutLocation

Past Weather in Sisimiut — Graph

°F

Sisimiut Temperature Yesterday

Maximum temperature yesterday: 25 °F (at 9:00 pm)
Minimum temperature yesterday: 20 °F (at 1:00 am)
Average temperature yesterday: 22 °F

High & Low Weather Summary for the Past Weeks

 TemperatureHumidityPressure
High29 °F (Dec 6, 9:00 pm)94% (Dec 5, 8:00 pm)30.12 "Hg (Dec 5, 8:00 pm)
Low13 °F (Nov 25, 2:00 am)49% (Nov 25, 7:00 pm)29.35 "Hg (Dec 6, 9:00 pm)
Average21 °F78%29.77 "Hg
* Reported Nov 24 10:00 pm — Dec 9 10:00 pm, Sisimiut, Weather by CustomWeather, © 2016

Note: Actual official high and low records may vary slightly from our data, if they occured in-between our weather recording intervals... More about our weather records

Advertising

Sisimiut Weather History for the Previous 24 Hours

Scroll right to see more
 ConditionsComfort  
Time TempWeatherWind HumidityBarometerVisibility
10:00 pm
Fri, Dec 9
24 °FCold.23 mph90%29.55 "HgN/A
9:00 pm25 °FCold.16 mph94%29.56 "HgN/A
8:00 pm24 °FCold.20 mph87%29.55 "HgN/A
7:00 pm24 °FCold.20 mph89%29.55 "HgN/A
6:00 pm23 °FCold.20 mph91%29.54 "HgN/A
5:00 pm23 °FCold.20 mph87%29.55 "HgN/A
4:00 pm23 °FCold.20 mph80%29.55 "HgN/A
3:00 pm23 °FCold.21 mph77%29.54 "HgN/A
2:00 pm23 °FCold.18 mph84%29.54 "HgN/A
1:00 pm23 °FCold.18 mph82%29.54 "HgN/A
12:00 pm23 °FCold.17 mph84%29.55 "HgN/A
11:00 am22 °FCold.17 mph87%29.56 "HgN/A
10:00 am22 °FCold.17 mph85%29.57 "HgN/A
9:00 am22 °FCold.17 mph83%29.57 "HgN/A
8:00 am21 °FCold.18 mph83%29.57 "HgN/A
7:00 am22 °FCold.17 mph83%29.58 "HgN/A
6:00 am22 °FCold.16 mph85%29.59 "HgN/A
5:00 am21 °FCold.15 mph81%29.60 "HgN/A
4:00 am21 °FCold.14 mph81%29.60 "HgN/A
3:00 am21 °FCold.14 mph78%29.62 "HgN/A
2:00 am21 °FCold.12 mph81%29.62 "HgN/A
1:00 am20 °FCold.10 mph81%29.64 "HgN/A
12:00 am21 °FCold.8 mph76%29.65 "HgN/A
Weather by CustomWeather, © 2016

See weather overviewHow to use our weather pages